[[{"header":{"parameterUnit":"m.s-1","parameterCategory":1,"la1":30.2991,"la2":30.254,"lo1":-89.0895,"lo2":-89.0444,"dy":0.0017,"dx":0.0017,"nx":28,"ny":28,"refTime":"2025-03-21T21:00:00:Z","depth":0,"parameterNumber":2,"parameterNumberName":"U-component_of_WINDS"},"data":[0,0,0,0,0,0,0,0,0,0,0,0,0,0,0,0,0,0,0,0,0,0,0,0,0,0,0,0,0,0,0,0,0,0,0,0,0,0,0,0,0,0,0,0,0,0,0,0,0,0,0,0,0,0,0,0,0,0,-0.9084,-0.9083,0,-0.9033,-0.9032,-0.9031,-0.8999,-0.8998,-0.8998,-0.8998,-0.8947,-0.8945,-0.8944,0,0,0,0,0,0,0,0,0,0,0,0,0,-0.9155,-0.9154,-0.9084,-0.9083,-0.9083,-0.9033,-0.9032,-0.9031,-0.8999,-0.8998,-0.8998,-0.8998,-0.8947,-0.8946,-0.8944,0,0,0,0,0,0,0,0,0,0,0,0,0,-0.9116,-0.9154,-0.9084,-0.906,-0.9058,-0.9033,-0.9032,-0.9031,-0.8999,-0.8998,-0.8998,-0.8998,-0.8947,-0.8946,-0.8944,-0.8939,0,0,-0.8939,-0.8938,0,0,0,0,0,0,0,0,-0.9118,-0.9114,-0.9064,-0.9062,-0.9059,-0.9022,-0.9038,-0.9,-0.8999,-0.9021,-0.8998,-0.8998,-0.8972,-0.8968,-0.8959,-0.8937,-0.8935,-0.8938,-0.8937,-0.8937,-0.8936,0,0,0,0,0,0,0,-0.9121,-0.9116,-0.9064,-0.9064,-0.906,-0.9053,-0.9047,-0.9031,-0.8999,-0.9019,-0.9017,-0.9011,-0.897,-0.8961,-0.8958,-0.8934,-0.8938,-0.8937,-0.8936,-0.8935,-0.8906,-0.8906,0,0,0,0,0,0,-0.9127,-0.9118,-0.9065,-0.9062,-0.9088,-0.9052,-0.9045,-0.9034,-0.8999,-0.8993,-0.9011,-0.901,-0.8964,-0.896,-0.8956,-0.8948,-0.8937,-0.8935,-0.8934,-0.8906,-0.8906,-0.8906,0,0,0,0,0,0,-0.9129,-0.9123,-0.9067,-0.9089,-0.9082,-0.9051,-0.9038,-0.9033,-0.9024,-0.8993,-0.8987,-0.9007,-0.8964,-0.8958,-0.8944,-0.8946,-0.8934,-0.8933,-0.8905,-0.8906,-0.8906,-0.8933,0,0,0,0,0,0,-0.9131,-0.9124,-0.9121,-0.909,-0.9081,-0.9056,-0.9039,-0.9032,-0.9021,-0.9018,-0.8988,-0.8983,-0.8963,-0.8947,-0.8942,-0.8944,-0.8931,-0.8905,-0.8906,-0.8906,-0.8932,-0.8935,-0.8937,0,0,0,0,0,-0.9134,-0.9131,-0.9121,-0.9115,-0.9077,-0.9056,-0.9051,-0.9028,-0.9021,-0.9018,-0.8999,-0.8984,-0.8947,-0.8945,-0.894,-0.8941,-0.8905,-0.8905,-0.8906,-0.8931,-0.8934,-0.8937,0,0,0,0,0,0,-0.9164,-0.9126,-0.9115,-0.9102,-0.9082,-0.905,-0.9046,-0.9032,-0.9014,-0.9013,-0.8985,-0.8979,-0.8967,-0.8953,-0.8952,-0.8935,-0.8924,-0.8924,-0.8945,-0.8948,-0.895,-0.8954,-0.893,0,0,0,0,0,-0.9169,-0.9155,-0.9123,-0.9114,-0.9105,-0.9078,-0.9068,-0.9052,-0.9031,-0.9022,-0.9001,-0.8982,-0.8966,-0.8956,-0.894,-0.893,-0.8923,-0.8928,-0.8931,-0.8933,-0.8933,-0.8927,-0.8929,-0.8908,-0.8908,-0.8908,0,0,-0.9179,-0.9157,-0.915,-0.912,-0.9103,-0.9089,-0.9071,-0.9057,-0.9047,-0.902,-0.9005,-0.899,-0.8966,-0.8954,-0.8948,-0.8942,-0.8937,-0.8934,-0.8935,-0.8934,-0.8928,-0.893,-0.8932,-0.8909,-0.8909,-0.8909,0,0,-0.9191,-0.9173,-0.9164,-0.9147,-0.9122,-0.9103,-0.9101,-0.9072,-0.906,-0.9045,-0.9025,-0.9013,-0.8985,-0.897,-0.8958,-0.8965,-0.8951,-0.8961,-0.8973,-0.8968,-0.897,-0.8971,-0.8974,-0.8975,-0.8961,-0.8961,-0.8961,0,-0.9208,-0.9186,-0.9161,-0.9149,-0.9136,-0.9111,-0.9103,-0.9088,-0.9059,-0.9051,-0.9044,-0.901,-0.8993,-0.8977,-0.8979,-0.897,-0.8968,-0.8964,-0.8971,-0.8972,-0.8973,-0.8976,-0.8977,-0.8962,-0.8962,-0.8962,-0.8962,0,-0.9207,-0.9193,-0.9188,-0.916,-0.9148,-0.9137,-0.9112,-0.9102,-0.9087,-0.907,-0.9055,-0.9033,-0.9012,-0.9008,-0.8993,-0.899,-0.8987,-0.8976,-0.8965,-0.8977,-0.8979,-0.898,-0.8964,-0.8964,-0.8963,-0.8963,0,0,-0.9237,-0.9195,-0.9194,-0.9181,-0.9152,-0.914,-0.9129,-0.9108,-0.9101,-0.9081,-0.9072,-0.905,-0.904,-0.9027,-0.9011,-0.9006,-0.9014,-0.8996,-0.8995,-0.9,-0.901,-0.9019,-0.902,-0.9004,-0.9004,-0.9005,-0.9012,0,-0.9244,-0.9222,-0.92,-0.9186,-0.9172,-0.9149,-0.9139,-0.9121,-0.9104,-0.9091,-0.9074,-0.9059,-0.9046,-0.9038,-0.9033,-0.9014,-0.9016,-0.9013,-0.8996,-0.8995,-0.9002,-0.9021,-0.903,-0.9038,-0.9013,-0.9013,-0.9013,0,-0.925,-0.9232,-0.9217,-0.9189,-0.9182,-0.9174,-0.9153,-0.9141,-0.9119,-0.9108,-0.9094,-0.9077,-0.9065,-0.9055,-0.9038,-0.9037,-0.9028,-0.9018,-0.9018,-0.9016,-0.9005,-0.902,-0.904,-0.9042,-0.9014,-0.9014,-0.9014,0,-0.9274,-0.9245,-0.9233,-0.9222,-0.9189,-0.9184,-0.917,-0.9148,-0.9138,-0.912,-0.9113,-0.9094,-0.9084,-0.907,-0.9049,-0.9044,-0.9035,-0.9023,-0.9026,-0.9026,-0.9025,-0.9025,-0.9045,-0.9019,-0.9019,-0.9019,-0.9019,0,-0.9285,-0.9277,-0.9243,-0.9235,-0.9225,-0.92,-0.9191,-0.9176,-0.9156,-0.9146,-0.9125,-0.9115,-0.9087,-0.9075,-0.9058,-0.9047,-0.9043,-0.9034,-0.903,-0.9036,-0.9037,-0.903,-0.9029,-0.9019,-0.9019,-0.9019,-0.9019,0,-0.931,-0.9287,-0.9271,-0.9241,-0.9234,-0.9228,-0.9202,-0.9194,-0.9177,-0.9164,-0.9159,-0.9133,-0.9117,-0.9094,-0.9072,-0.9061,-0.9052,-0.9045,-0.906,-0.9057,-0.9061,-0.9061,-0.9077,-0.9078,-0.9052,-0.9052,-0.9052,0,-0.9319,-0.9312,-0.9281,-0.9272,-0.9259,-0.9245,-0.9233,-0.9209,-0.9198,-0.9173,-0.9169,-0.9151,-0.9136,-0.9112,-0.9091,-0.9074,-0.9066,-0.9073,-0.9064,-0.907,-0.9067,-0.9068,-0.9067,-0.9076,-0.9076,-0.9076,-0.9076,0,-0.9338,-0.9326,-0.9311,-0.9291,-0.9278,-0.9262,-0.9244,-0.9238,-0.921,-0.92,-0.9183,-0.9171,-0.9148,-0.9131,-0.9111,-0.9098,-0.9083,-0.908,-0.9079,-0.9086,-0.9095,-0.9091,-0.9066,-0.9079,-0.9079,-0.9079,-0.9079,-0.9079,-0.9355,-0.9348,-0.9325,-0.9308,-0.9293,-0.9277,-0.9268,-0.925,-0.9235,-0.9214,-0.9201,-0.9185,-0.9165,-0.9136,-0.9123,-0.9111,-0.9105,-0.9105,-0.9105,-0.9105,-0.9107,-0.9096,-0.9108,-0.9107,-0.9107,-0.9107,-0.9107,0,-0.9373,-0.9357,-0.9342,-0.9318,-0.9305,-0.9292,-0.9272,-0.9262,-0.9249,-0.923,-0.9216,-0.9197,-0.9181,-0.9159,-0.9141,-0.9136,-0.9128,-0.9132,-0.9132,-0.9129,-0.9114,-0.9116,-0.9138,-0.9138,-0.9138,-0.9138,-0.9138,-0.9138,-0.9381,-0.9368,-0.9354,-0.9334,-0.9318,-0.9302,-0.9292,-0.9278,-0.9263,-0.9243,-0.9229,-0.9215,-0.9195,-0.9176,-0.9161,-0.9155,-0.915,-0.9155,-0.9147,-0.9133,-0.913,-0.9128,-0.913,-0.9154,-0.9154,-0.9164,-0.9164,-0.9164]},{"header":{"parameterUnit":"m.s-1","parameterCategory":1,"la1":30.2991,"la2":30.254,"lo1":-89.0895,"lo2":-89.0444,"dy":0.0017,"dx":0.0017,"nx":28,"ny":28,"refTime":"2025-03-21T21:00:00:Z","depth":0,"parameterNumber":3,"parameterNumberName":"V-component_of_WINDS"},"data":[0,0,0,0,0,0,0,0,0,0,0,0,0,0,0,0,0,0,0,0,0,0,0,0,0,0,0,0,0,0,0,0,0,0,0,0,0,0,0,0,0,0,0,0,0,0,0,0,0,0,0,0,0,0,0,0,0,0,6.7202,6.7202,0,6.721,6.721,6.721,6.7166,6.7165,6.7163,6.7162,6.7168,6.7169,6.717,0,0,0,0,0,0,0,0,0,0,0,0,0,6.7148,6.715,6.7202,6.7202,6.7202,6.721,6.721,6.721,6.7166,6.7165,6.7163,6.7162,6.7167,6.7169,6.717,0,0,0,0,0,0,0,0,0,0,0,0,0,6.7165,6.715,6.7202,6.7181,6.7179,6.721,6.721,6.721,6.7166,6.7165,6.7163,6.7161,6.7167,6.7169,6.7171,6.722,0,0,6.7177,6.7177,0,0,0,0,0,0,0,0,6.7164,6.7167,6.7184,6.7183,6.7181,6.7185,6.7193,6.7213,6.7167,6.7171,6.7162,6.716,6.7175,6.7176,6.7181,6.722,6.7221,6.7177,6.7178,6.7179,6.7179,0,0,0,0,0,0,0,6.7163,6.7167,6.7205,6.7184,6.7182,6.7171,6.7172,6.7196,6.7183,6.7171,6.7168,6.7169,6.7173,6.718,6.7181,6.7221,6.7177,6.7178,6.718,6.718,6.7302,6.7304,0,0,0,0,0,0,6.7165,6.7166,6.7205,6.7205,6.7168,6.7174,6.7174,6.7185,6.7183,6.7181,6.7171,6.7167,6.7177,6.7179,6.7181,6.724,6.7179,6.7181,6.7182,6.73,6.7303,6.7305,0,0,0,0,0,0,6.7164,6.7169,6.7204,6.7185,6.7188,6.7177,6.719,6.7187,6.7193,6.7183,6.718,6.718,6.7176,6.7178,6.7211,6.7239,6.7181,6.7183,6.7298,6.7301,6.7304,6.7357,0,0,0,0,0,0,6.7163,6.7169,6.7188,6.7186,6.719,6.7235,6.7191,6.7188,6.7196,6.7192,6.7191,6.7189,6.7175,6.7209,6.7213,6.7241,6.7185,6.7295,6.7299,6.7303,6.7353,6.7362,6.737,0,0,0,0,0,6.7161,6.7201,6.7189,6.7194,6.7213,6.7236,6.7238,6.7222,6.7199,6.7218,6.7212,6.7189,6.7236,6.7212,6.7217,6.7246,6.7293,6.7298,6.7303,6.7349,6.736,6.7369,0,0,0,0,0,0,6.7205,6.72,6.7186,6.7227,6.7233,6.7229,6.7252,6.7234,6.7245,6.724,6.7219,6.7219,6.7256,6.7254,6.7228,6.7295,6.7261,6.7266,6.7294,6.7305,6.7313,6.7312,6.7186,0,0,0,0,0,6.722,6.724,6.7234,6.7271,6.7275,6.7263,6.7273,6.726,6.7264,6.7266,6.7262,6.7267,6.7283,6.7294,6.7308,6.7353,6.7352,6.7375,6.7384,6.7391,6.7396,6.7421,6.7431,6.732,6.732,6.732,0,0,6.725,6.725,6.7263,6.728,6.7283,6.7304,6.7265,6.7288,6.7304,6.7269,6.73,6.7298,6.7302,6.7342,6.7359,6.7341,6.7426,6.7397,6.7402,6.7403,6.7427,6.7437,6.7446,6.7323,6.7323,6.7322,0,0,6.7315,6.7317,6.7349,6.7353,6.7359,6.7351,6.7359,6.7358,6.7356,6.7387,6.7362,6.738,6.7408,6.7412,6.7418,6.7489,6.7468,6.7494,6.7537,6.7561,6.757,6.7578,6.7603,6.7613,6.7499,6.7499,6.7499,0,6.7351,6.7383,6.7367,6.7393,6.7402,6.7373,6.7405,6.741,6.7419,6.7425,6.7406,6.7442,6.7442,6.7483,6.7501,6.7506,6.7514,6.7493,6.757,6.7578,6.7585,6.7609,6.7619,6.7502,6.7502,6.7502,6.7501,0,6.7428,6.745,6.7475,6.7487,6.7498,6.7527,6.7515,6.7529,6.7516,6.7511,6.7544,6.7544,6.7558,6.7567,6.7554,6.7607,6.7596,6.7574,6.7539,6.7599,6.7621,6.763,6.7507,6.7506,6.7505,6.7504,0,0,6.7519,6.7524,6.7533,6.7539,6.7544,6.7561,6.7589,6.7605,6.7617,6.7625,6.7648,6.7674,6.7654,6.7661,6.7648,6.767,6.7727,6.7645,6.7645,6.7661,6.7787,6.7803,6.7814,6.7714,6.7716,6.7717,6.7786,0,6.7584,6.7633,6.7621,6.7669,6.769,6.7665,6.769,6.7696,6.7692,6.7709,6.7705,6.7724,6.7696,6.77,6.772,6.7716,6.7752,6.7711,6.7735,6.7736,6.7735,6.7826,6.7843,6.7908,6.7795,6.7796,6.7797,0,6.7665,6.7679,6.773,6.7734,6.7742,6.7765,6.7779,6.7796,6.7803,6.7799,6.7808,6.7791,6.7819,6.7785,6.7824,6.7796,6.7805,6.7805,6.7807,6.7808,6.777,6.7829,6.7928,6.7938,6.7811,6.781,6.7809,0,6.7727,6.7758,6.7793,6.7799,6.7804,6.7821,6.7824,6.7829,6.784,6.7852,6.7859,6.7874,6.7882,6.7895,6.7883,6.7859,6.7924,6.7888,6.7921,6.7921,6.7935,6.7934,6.8036,6.7941,6.7941,6.7941,6.7941,0,6.78,6.7833,6.7822,6.7843,6.788,6.7866,6.7902,6.7901,6.7907,6.7928,6.7906,6.7926,6.791,6.7929,6.792,6.7953,6.7957,6.7954,6.7952,6.7956,6.7957,6.7962,6.7957,6.7944,6.7943,6.7942,6.7942,0,6.7875,6.7869,6.7906,6.791,6.7911,6.7938,6.794,6.796,6.7956,6.7983,6.7989,6.7982,6.8003,6.7993,6.8014,6.8009,6.8052,6.8043,6.8051,6.8048,6.8082,6.8079,6.8191,6.8205,6.8101,6.8102,6.8103,0,6.7922,6.7947,6.7954,6.7968,6.7973,6.7994,6.8006,6.7994,6.8007,6.8018,6.8037,6.8057,6.8072,6.8107,6.8103,6.812,6.8111,6.8149,6.8113,6.8118,6.8112,6.8111,6.8114,6.8156,6.8158,6.8159,6.8159,0,6.8007,6.8003,6.8022,6.804,6.8056,6.8069,6.808,6.8092,6.8081,6.8096,6.8119,6.8131,6.8154,6.8174,6.8189,6.8191,6.8174,6.8171,6.818,6.8184,6.8188,6.8187,6.807,6.8168,6.8167,6.8167,6.8166,6.8166,6.8069,6.8091,6.81,6.8122,6.813,6.8142,6.8162,6.8161,6.818,6.8199,6.8191,6.8217,6.8224,6.8243,6.8248,6.8268,6.8253,6.8265,6.8268,6.8272,6.8276,6.8185,6.8271,6.8271,6.827,6.827,6.827,0,6.8153,6.8159,6.8179,6.8197,6.8215,6.8199,6.8211,6.8226,6.825,6.8259,6.8276,6.8302,6.8322,6.8321,6.8339,6.8356,6.8348,6.8361,6.8359,6.836,6.8289,6.828,6.8367,6.8367,6.8367,6.8367,6.8367,6.8367,6.8199,6.8235,6.8234,6.8274,6.8279,6.8306,6.8314,6.8325,6.8333,6.8364,6.8381,6.8381,6.8387,6.8406,6.8423,6.8422,6.843,6.8446,6.8442,6.8375,6.8365,6.8356,6.8348,6.8448,6.8448,6.8512,6.8513,6.8514]}]]